sat.trackr.live / text

‹ back to catalog

STARLINK-35929

NORAD 66625 · 2025-271J

PAYLOAD ACTIVE UNKNOWN

§ Identity

Operator
Country
US
Launch date
2025-11-23
Launch site
AFWTR
Launch vehicle
Mass (kg)
RCS (m²)

Purposes: comms

External: N2YO · Heavens-Above · Gunter

§ Orbital elements

Epoch: 2026-05-24T23:49:01.716672Z

Period
93.85 min
Inclination
53.1603°
Eccentricity
0.0001399
Mean motion
15.34411598 rev/d
Perigee alt
461.7 km
Apogee alt
463.6 km
Semi-major
6,840.8 km
B*
8.2906e-4
RAAN
143.7678°
Arg perigee
97.1091°
Mean anomaly
263.0071°
Rev number
2,926

§ Raw data

STARLINK-359291 66625U 25271J   26144.99238098  .00027749  00000+0  82906-3 0  99932 66625  53.1603 143.7678 0001399  97.1091 263.0071 15.34411598 29269

JSON: /api/v1/satellites/66625 · /tle

For live sub-satellite position, see the globe view (requires WebGL).

§ Visibility from observer

Set your observer location to see the next 7 days of passes ≥ 10°. The values pass through the URL so the page stays shareable.

No JS? Fill the form by hand. The geolocation button needs JavaScript.